Tracking 28790 objects as of 18-Apr-2024
HD Live streaming from Space Station
objects crossing your sky now

COSMOS 1855

Track COSMOS 1855 now!
10-day predictions
COSMOS 1855 is classified as:


NORAD ID: 18116
Int'l Code: 1987-051D
Perigee: 1,453.6 km
Apogee: 1,483.7 km
Inclination: 74.0 °
Period: 115.1 minutes
Semi major axis: 7839 km
RCS: 0.6844 m2 (medium)
Launch date: June 16, 1987
Source: Commonwealth of Independent States (former USSR) (CIS)
Launch site: PLESETSK MISSILE AND SPACE COMPLEX (PKMTR)
Your satellite tracking list
Your tracking list is empty




NASA's NSSDC Master Catalog

Two Line Element Set (TLE):
1 18116U 87051D   24108.85008951  .00000009  00000-0  16002-3 0  9990
2 18116  74.0028 251.1627 0019151  60.5631  54.0747 12.50713262681991
Source of the keplerian elements: AFSPC